Year,Month,Day,Hour,Minute,Value (Times are PST for barometer in hPa)
2014,02,16,00,00,995.42
2014,02,16,00,05,995.67
2014,02,16,00,06,995.73
2014,02,16,00,07,995.77
2014,02,16,00,08,995.80
2014,02,16,00,09,995.80
2014,02,16,00,10,995.84
2014,02,16,00,11,995.84
2014,02,16,00,12,995.93
2014,02,16,00,13,995.84
2014,02,16,00,14,995.96
2014,02,16,00,15,995.94
2014,02,16,00,16,996.01
2014,02,16,00,17,995.97
2014,02,16,00,18,995.94
2014,02,16,00,19,996.03
2014,02,16,00,20,996.04
2014,02,16,00,21,996.11
2014,02,16,00,22,996.17
2014,02,16,00,23,996.17
2014,02,16,00,24,996.21
2014,02,16,00,25,996.24
2014,02,16,00,26,996.34
2014,02,16,00,27,996.41
2014,02,16,00,28,996.45
2014,02,16,00,29,996.45
2014,02,16,00,30,996.51
2014,02,16,00,31,996.71
2014,02,16,00,32,996.75
2014,02,16,00,33,996.88
2014,02,16,00,34,996.92
2014,02,16,00,35,996.95
2014,02,16,00,36,996.85
2014,02,16,00,37,996.92
2014,02,16,00,38,996.85
2014,02,16,00,39,996.92
2014,02,16,00,40,996.95
2014,02,16,00,41,997.02
2014,02,16,00,42,997.09
2014,02,16,00,43,997.16
2014,02,16,00,44,997.12
2014,02,16,00,45,997.32
2014,02,16,00,46,997.33
2014,02,16,00,47,997.33
2014,02,16,00,48,997.45
2014,02,16,00,49,997.55
2014,02,16,00,50,997.63
2014,02,16,00,51,997.63
2014,02,16,00,52,997.56
2014,02,16,00,53,997.60
2014,02,16,00,54,997.56
2014,02,16,00,55,997.53
2014,02,16,00,56,997.65
2014,02,16,00,57,997.70
2014,02,16,00,58,997.70
2014,02,16,00,59,997.70
2014,02,16,01,00,997.66
2014,02,16,01,01,997.73
2014,02,16,01,02,997.70
2014,02,16,01,03,997.77
2014,02,16,01,04,997.73
2014,02,16,01,05,997.83
2014,02,16,01,06,997.83
2014,02,16,01,07,997.77
2014,02,16,01,08,997.86
2014,02,16,01,09,997.87
2014,02,16,01,10,997.83
2014,02,16,01,11,997.83
2014,02,16,01,12,997.83
2014,02,16,01,13,997.87
2014,02,16,01,14,997.83
2014,02,16,01,15,997.80
2014,02,16,01,16,997.83
2014,02,16,01,17,997.80
2014,02,16,01,18,997.80
2014,02,16,01,19,997.80
2014,02,16,01,20,997.87
2014,02,16,01,21,997.87
2014,02,16,01,22,997.94
2014,02,16,01,23,997.80
2014,02,16,01,24,997.80
2014,02,16,01,25,997.90
2014,02,16,01,26,997.87
2014,02,16,01,27,997.94
2014,02,16,01,28,997.84
2014,02,16,01,29,997.80
2014,02,16,01,30,997.77
2014,02,16,01,31,997.83
2014,02,16,01,32,997.87
2014,02,16,01,33,997.80
2014,02,16,01,34,997.86
2014,02,16,01,35,997.87
2014,02,16,01,36,997.87
2014,02,16,01,37,997.97
2014,02,16,01,38,997.97
2014,02,16,01,39,997.94
2014,02,16,01,40,998.03
2014,02,16,01,41,998.00
2014,02,16,01,42,998.04
2014,02,16,01,43,998.07
2014,02,16,01,44,998.10
2014,02,16,01,45,998.14
2014,02,16,01,46,998.14
2014,02,16,01,47,998.23
2014,02,16,01,48,998.31
2014,02,16,01,49,998.38
2014,02,16,01,50,998.28
2014,02,16,01,51,998.38
2014,02,16,01,52,998.41
2014,02,16,01,53,998.41
2014,02,16,01,54,998.44
2014,02,16,01,55,998.44
2014,02,16,01,56,998.41
2014,02,16,01,57,998.48
2014,02,16,01,58,998.48
2014,02,16,01,59,998.51
2014,02,16,02,00,998.58
2014,02,16,02,01,998.61
2014,02,16,02,02,998.68
2014,02,16,02,03,998.75
2014,02,16,02,04,998.78
2014,02,16,02,05,998.82
2014,02,16,02,06,998.98
2014,02,16,02,07,999.05
2014,02,16,02,08,999.02
2014,02,16,02,09,999.05
2014,02,16,02,10,999.02
2014,02,16,02,11,999.05
2014,02,16,02,12,999.09
2014,02,16,02,13,999.18
2014,02,16,02,14,999.19
2014,02,16,02,15,999.15
2014,02,16,02,16,999.19
2014,02,16,02,17,999.19
2014,02,16,02,18,999.22
2014,02,16,02,19,999.26
2014,02,16,02,20,999.38
2014,02,16,02,21,999.39
2014,02,16,02,22,999.43
2014,02,16,02,23,999.36
2014,02,16,02,24,999.39
2014,02,16,02,25,999.46
2014,02,16,02,26,999.46
2014,02,16,02,27,999.39
2014,02,16,02,28,999.46
2014,02,16,02,29,999.55
2014,02,16,02,30,999.59
2014,02,16,02,31,999.66
2014,02,16,02,32,999.57
2014,02,16,02,33,999.56
2014,02,16,02,34,999.75
2014,02,16,02,35,999.83
2014,02,16,02,36,999.87
2014,02,16,02,37,999.87
2014,02,16,02,38,999.83
2014,02,16,02,39,999.83
2014,02,16,02,40,999.80
2014,02,16,02,41,999.87
2014,02,16,02,42,999.71
2014,02,16,02,43,999.70
2014,02,16,02,44,999.64
2014,02,16,02,45,999.75
2014,02,16,02,46,999.82
2014,02,16,02,47,999.87
2014,02,16,02,48,999.77
2014,02,16,02,49,999.83
2014,02,16,02,50,999.92
2014,02,16,02,51,999.93
2014,02,16,02,52,999.87
2014,02,16,02,53,999.93
2014,02,16,02,54,999.97
2014,02,16,02,55,999.90
2014,02,16,02,56,999.87
2014,02,16,02,57,999.87
2014,02,16,02,58,999.87
2014,02,16,02,59,999.83
2014,02,16,03,00,999.92
2014,02,16,03,01,999.84
2014,02,16,03,02,999.90
2014,02,16,03,03,999.90
2014,02,16,03,04,999.87
2014,02,16,03,05,999.90
2014,02,16,03,06,999.83
2014,02,16,03,07,999.96
2014,02,16,03,08,1000.06
2014,02,16,03,09,1000.07
2014,02,16,03,10,1000.03
2014,02,16,03,11,1000.09
2014,02,16,03,12,1000.04
2014,02,16,03,13,1000.00
2014,02,16,03,14,1000.03
2014,02,16,03,15,1000.00
2014,02,16,03,16,999.93
2014,02,16,03,17,999.97
2014,02,16,03,18,999.88
2014,02,16,03,19,999.83
2014,02,16,03,20,999.90
2014,02,16,03,21,999.90
2014,02,16,03,22,999.93
2014,02,16,03,23,999.87
2014,02,16,03,24,999.93
2014,02,16,03,25,999.97
2014,02,16,03,26,1000.03
2014,02,16,03,27,1000.13
2014,02,16,03,28,1000.14
2014,02,16,03,29,1000.26
2014,02,16,03,30,1000.34
2014,02,16,03,31,1000.41
2014,02,16,03,32,1000.34
2014,02,16,03,33,1000.41
2014,02,16,03,34,1000.44
2014,02,16,03,35,1000.44
2014,02,16,03,36,1000.57
2014,02,16,03,37,1000.61
2014,02,16,03,38,1000.58
2014,02,16,03,39,1000.51
2014,02,16,03,40,1000.54
2014,02,16,03,41,1000.69
2014,02,16,03,42,1000.68
2014,02,16,03,43,1000.75
2014,02,16,03,44,1000.81
2014,02,16,03,45,1000.85
2014,02,16,03,46,1000.81
2014,02,16,03,47,1000.85
2014,02,16,03,48,1000.81
2014,02,16,03,49,1000.81
2014,02,16,03,50,1000.85
2014,02,16,03,51,1000.97
2014,02,16,03,52,1000.98
2014,02,16,03,53,1001.05
2014,02,16,03,54,1001.18
2014,02,16,03,55,1001.15
2014,02,16,03,56,1001.28
2014,02,16,03,57,1001.20
2014,02,16,03,58,1001.19
2014,02,16,03,59,1001.25
2014,02,16,04,00,1001.25
2014,02,16,04,01,1001.25
2014,02,16,04,02,1001.38
2014,02,16,04,03,1001.30
2014,02,16,04,04,1001.25
2014,02,16,04,05,1001.25
2014,02,16,04,06,1001.38
2014,02,16,04,07,1001.32
2014,02,16,04,08,1001.39
2014,02,16,04,09,1001.36
2014,02,16,04,10,1001.39
2014,02,16,04,11,1001.39
2014,02,16,04,12,1001.39
2014,02,16,04,13,1001.39
2014,02,16,04,14,1001.36
2014,02,16,04,15,1001.42
2014,02,16,04,16,1001.39
2014,02,16,04,17,1001.51
2014,02,16,04,18,1001.47
2014,02,16,04,19,1001.52
2014,02,16,04,20,1001.58
2014,02,16,04,21,1001.59
2014,02,16,04,22,1001.72
2014,02,16,04,23,1001.76
2014,02,16,04,24,1001.76
2014,02,16,04,25,1001.80
2014,02,16,04,26,1001.73
2014,02,16,04,27,1001.80
2014,02,16,04,28,1001.86
2014,02,16,04,29,1001.90
2014,02,16,04,30,1001.93
2014,02,16,04,31,1001.90
2014,02,16,04,32,1001.90
2014,02,16,04,33,1001.97
2014,02,16,04,34,1002.00
2014,02,16,04,35,1002.12
2014,02,16,04,36,1002.07
2014,02,16,04,37,1002.23
2014,02,16,04,38,1002.24
2014,02,16,04,39,1002.36
2014,02,16,04,40,1002.37
2014,02,16,04,41,1002.43
2014,02,16,04,42,1002.44
2014,02,16,04,43,1002.47
2014,02,16,04,44,1002.47
2014,02,16,04,45,1002.57
2014,02,16,04,46,1002.57
2014,02,16,04,47,1002.61
2014,02,16,04,48,1002.64
2014,02,16,04,49,1002.77
2014,02,16,04,50,1002.85
2014,02,16,04,51,1002.88
2014,02,16,04,52,1002.88
2014,02,16,04,53,1002.91
2014,02,16,04,54,1003.00
2014,02,16,04,55,1002.95
2014,02,16,04,56,1003.07
2014,02,16,04,57,1003.17
2014,02,16,04,58,1003.25
2014,02,16,04,59,1003.34
2014,02,16,05,00,1003.45
2014,02,16,05,01,1003.42
2014,02,16,05,02,1003.42
2014,02,16,05,03,1003.46
2014,02,16,05,04,1003.49
2014,02,16,05,05,1003.49
2014,02,16,05,06,1003.52
2014,02,16,05,07,1003.46
2014,02,16,05,08,1003.52
2014,02,16,05,09,1003.49
2014,02,16,05,10,1003.49
2014,02,16,05,11,1003.49
2014,02,16,05,12,1003.46
2014,02,16,05,13,1003.39
2014,02,16,05,14,1003.42
2014,02,16,05,15,1003.39
2014,02,16,05,16,1003.42
2014,02,16,05,17,1003.39
2014,02,16,05,18,1003.35
2014,02,16,05,19,1003.35
2014,02,16,05,20,1003.35
2014,02,16,05,21,1003.35
2014,02,16,05,22,1003.30
2014,02,16,05,23,1003.34
2014,02,16,05,24,1003.42
2014,02,16,05,25,1003.46
2014,02,16,05,26,1003.42
2014,02,16,05,27,1003.42
2014,02,16,05,28,1003.39
2014,02,16,05,29,1003.45
2014,02,16,05,30,1003.46
2014,02,16,05,31,1003.46
2014,02,16,05,32,1003.46
2014,02,16,05,33,1003.49
2014,02,16,05,34,1003.49
2014,02,16,05,35,1003.46
2014,02,16,05,36,1003.46
2014,02,16,05,37,1003.49
2014,02,16,05,38,1003.52
2014,02,16,05,39,1003.46
2014,02,16,05,40,1003.52
2014,02,16,05,41,1003.46
2014,02,16,05,42,1003.46
2014,02,16,05,43,1003.55
2014,02,16,05,44,1003.56
2014,02,16,05,45,1003.59
2014,02,16,05,46,1003.62
2014,02,16,05,47,1003.66
2014,02,16,05,48,1003.73
2014,02,16,05,49,1003.76
2014,02,16,05,50,1003.73
2014,02,16,05,51,1003.69
2014,02,16,05,52,1003.73
2014,02,16,05,53,1003.76
2014,02,16,05,54,1003.73
2014,02,16,05,55,1003.83
2014,02,16,05,56,1003.90
2014,02,16,05,57,1003.90
2014,02,16,05,58,1003.95
2014,02,16,05,59,1003.96
2014,02,16,06,00,1004.00
2014,02,16,06,01,1004.03
2014,02,16,06,02,1004.06
2014,02,16,06,03,1004.10
2014,02,16,06,04,1004.01
2014,02,16,06,05,1003.93
2014,02,16,06,06,1004.16
2014,02,16,06,07,1004.07
2014,02,16,06,08,1004.13
2014,02,16,06,09,1004.13
2014,02,16,06,10,1004.17
2014,02,16,06,11,1004.20
2014,02,16,06,12,1004.17
2014,02,16,06,13,1004.27
2014,02,16,06,14,1004.30
2014,02,16,06,15,1004.30
2014,02,16,06,16,1004.30
2014,02,16,06,17,1004.30
2014,02,16,06,18,1004.30
2014,02,16,06,19,1004.27
2014,02,16,06,20,1004.20
2014,02,16,06,21,1004.13
2014,02,16,06,22,1004.13
2014,02,16,06,23,1004.06
2014,02,16,06,24,1004.13
2014,02,16,06,25,1004.17
2014,02,16,06,26,1004.20
2014,02,16,06,27,1004.27
2014,02,16,06,28,1004.17
2014,02,16,06,29,1004.33
2014,02,16,06,30,1004.37
2014,02,16,06,31,1004.40
2014,02,16,06,32,1004.40
2014,02,16,06,33,1004.37
2014,02,16,06,34,1004.40
2014,02,16,06,35,1004.37
2014,02,16,06,36,1004.40
2014,02,16,06,37,1004.37
2014,02,16,06,38,1004.46
2014,02,16,06,39,1004.50
2014,02,16,06,40,1004.56
2014,02,16,06,41,1004.61
2014,02,16,06,42,1004.64
2014,02,16,06,43,1004.67
2014,02,16,06,44,1004.61
2014,02,16,06,45,1004.57
2014,02,16,06,46,1004.57
2014,02,16,06,47,1004.61
2014,02,16,06,48,1004.64
2014,02,16,06,49,1004.71
2014,02,16,06,50,1004.71
2014,02,16,06,51,1004.71
2014,02,16,06,52,1004.67
2014,02,16,06,53,1004.67
2014,02,16,06,54,1004.62
2014,02,16,06,55,1004.61
2014,02,16,06,56,1004.57
2014,02,16,06,57,1004.61
2014,02,16,06,58,1004.57
2014,02,16,06,59,1004.70
2014,02,16,07,00,1004.71
2014,02,16,07,01,1004.71
2014,02,16,07,02,1004.67
2014,02,16,07,03,1004.64
2014,02,16,07,04,1004.57
2014,02,16,07,05,1004.66
2014,02,16,07,06,1004.77
2014,02,16,07,07,1004.81
2014,02,16,07,08,1004.94
2014,02,16,07,09,1004.91
2014,02,16,07,10,1005.04
2014,02,16,07,11,1005.05
2014,02,16,07,12,1005.05
2014,02,16,07,13,1005.01
2014,02,16,07,14,1005.10
2014,02,16,07,15,1005.24
2014,02,16,07,16,1005.28
2014,02,16,07,17,1005.32
2014,02,16,07,18,1005.35
2014,02,16,07,19,1005.32
2014,02,16,07,20,1005.32
2014,02,16,07,21,1005.35
2014,02,16,07,22,1005.45
2014,02,16,07,23,1005.39
2014,02,16,07,24,1005.39
2014,02,16,07,25,1005.32
2014,02,16,07,26,1005.25
2014,02,16,07,27,1005.25
2014,02,16,07,28,1005.18
2014,02,16,07,29,1005.18
2014,02,16,07,30,1005.22
2014,02,16,07,31,1005.22
2014,02,16,07,32,1005.32
2014,02,16,07,33,1005.35
2014,02,16,07,34,1005.54
2014,02,16,07,35,1005.59
2014,02,16,07,36,1005.68
2014,02,16,07,37,1005.78
2014,02,16,07,38,1005.76
2014,02,16,07,39,1005.79
2014,02,16,07,40,1005.85
2014,02,16,07,41,1005.93
2014,02,16,07,42,1006.03
2014,02,16,07,43,1006.06
2014,02,16,07,44,1006.06
2014,02,16,07,45,1005.97
2014,02,16,07,46,1005.96
2014,02,16,07,47,1006.03
2014,02,16,07,48,1006.03
2014,02,16,07,49,1005.96
2014,02,16,07,50,1005.96
2014,02,16,07,51,1006.05
2014,02,16,07,52,1006.06
2014,02,16,07,53,1006.06
2014,02,16,07,54,1006.10
2014,02,16,07,55,1006.10
2014,02,16,07,56,1006.06
2014,02,16,07,57,1006.10
2014,02,16,07,58,1006.10
2014,02,16,07,59,1006.20
2014,02,16,08,00,1006.13
2014,02,16,08,01,1006.19
2014,02,16,08,02,1006.23
2014,02,16,08,03,1006.23
2014,02,16,08,04,1006.23
2014,02,16,08,05,1006.27
2014,02,16,08,06,1006.39
2014,02,16,08,07,1006.44
2014,02,16,08,08,1006.49
2014,02,16,08,09,1006.54
2014,02,16,08,10,1006.59
2014,02,16,08,11,1006.73
2014,02,16,08,12,1006.77
2014,02,16,08,13,1006.84
2014,02,16,08,14,1006.84
2014,02,16,08,15,1006.88
2014,02,16,08,16,1006.88
2014,02,16,08,17,1006.88
2014,02,16,08,18,1006.88
2014,02,16,08,19,1006.91
2014,02,16,08,20,1006.91
2014,02,16,08,21,1007.01
2014,02,16,08,22,1007.01
2014,02,16,08,23,1006.94
2014,02,16,08,24,1006.98
2014,02,16,08,25,1006.98
2014,02,16,08,26,1006.98
2014,02,16,08,27,1006.89
2014,02,16,08,28,1006.91
2014,02,16,08,29,1006.88
2014,02,16,08,30,1006.97
2014,02,16,08,31,1007.10
2014,02,16,08,32,1007.11
2014,02,16,08,33,1007.08
2014,02,16,08,34,1007.20
2014,02,16,08,35,1007.25
2014,02,16,08,36,1007.25
2014,02,16,08,37,1007.25
2014,02,16,08,38,1007.28
2014,02,16,08,39,1007.28
2014,02,16,08,40,1007.16
2014,02,16,08,41,1007.27
2014,02,16,08,42,1007.32
2014,02,16,08,43,1007.41
2014,02,16,08,44,1007.47
2014,02,16,08,45,1007.39
2014,02,16,08,46,1007.38
2014,02,16,08,47,1007.35
2014,02,16,08,48,1007.32
2014,02,16,08,49,1007.32
2014,02,16,08,50,1007.32
2014,02,16,08,51,1007.35
2014,02,16,08,52,1007.38
2014,02,16,08,53,1007.38
2014,02,16,08,54,1007.35
2014,02,16,08,55,1007.35
2014,02,16,08,56,1007.41
2014,02,16,08,57,1007.38
2014,02,16,08,58,1007.38
2014,02,16,08,59,1007.38
2014,02,16,09,00,1007.45
2014,02,16,09,01,1007.45
2014,02,16,09,02,1007.42
2014,02,16,09,03,1007.42
2014,02,16,09,04,1007.47
2014,02,16,09,05,1007.43
2014,02,16,09,06,1007.48
2014,02,16,09,07,1007.52
2014,02,16,09,08,1007.48
2014,02,16,09,09,1007.58
2014,02,16,09,10,1007.55
2014,02,16,09,11,1007.59
2014,02,16,09,12,1007.59
2014,02,16,09,13,1007.55
2014,02,16,09,14,1007.55
2014,02,16,09,15,1007.59
2014,02,16,09,16,1007.65
2014,02,16,09,17,1007.62
2014,02,16,09,18,1007.59
2014,02,16,09,19,1007.62
2014,02,16,09,20,1007.59
2014,02,16,09,21,1007.59
2014,02,16,09,22,1007.55
2014,02,16,09,23,1007.48
2014,02,16,09,24,1007.52
2014,02,16,09,25,1007.48
2014,02,16,09,26,1007.48
2014,02,16,09,27,1007.42
2014,02,16,09,28,1007.45
2014,02,16,09,29,1007.48
2014,02,16,09,30,1007.39
2014,02,16,09,31,1007.44
2014,02,16,09,32,1007.33
2014,02,16,09,33,1007.37
2014,02,16,09,34,1007.42
2014,02,16,09,35,1007.42
2014,02,16,09,36,1007.47
2014,02,16,09,37,1007.45
2014,02,16,09,38,1007.48
2014,02,16,09,39,1007.58
2014,02,16,09,40,1007.59
2014,02,16,09,41,1007.65
2014,02,16,09,42,1007.69
2014,02,16,09,43,1007.63
2014,02,16,09,44,1007.65
2014,02,16,09,45,1007.69
2014,02,16,09,46,1007.63
2014,02,16,09,47,1007.65
2014,02,16,09,48,1007.56
2014,02,16,09,49,1007.52
2014,02,16,09,50,1007.52
2014,02,16,09,51,1007.48
2014,02,16,09,52,1007.52
2014,02,16,09,53,1007.55
2014,02,16,09,54,1007.52
2014,02,16,09,55,1007.55
2014,02,16,09,56,1007.55
2014,02,16,09,57,1007.55
2014,02,16,09,58,1007.59
2014,02,16,09,59,1007.55
2014,02,16,10,00,1007.55
2014,02,16,10,01,1007.59
2014,02,16,10,02,1007.55
2014,02,16,10,03,1007.59
2014,02,16,10,04,1007.59
2014,02,16,10,05,1007.55
2014,02,16,10,06,1007.65
2014,02,16,10,07,1007.53
2014,02,16,10,08,1007.48
2014,02,16,10,09,1007.45
2014,02,16,10,10,1007.42
2014,02,16,10,11,1007.36
2014,02,16,10,12,1007.38
2014,02,16,10,13,1007.42
2014,02,16,10,14,1007.42
2014,02,16,10,15,1007.45
2014,02,16,10,16,1007.48
2014,02,16,10,17,1007.48
2014,02,16,10,18,1007.42
2014,02,16,10,19,1007.47
2014,02,16,10,20,1007.71
2014,02,16,10,21,1007.69
2014,02,16,10,22,1007.56
2014,02,16,10,23,1007.65
2014,02,16,10,24,1007.65
2014,02,16,10,25,1007.72
2014,02,16,10,26,1007.69
2014,02,16,10,27,1007.69
2014,02,16,10,28,1007.75
2014,02,16,10,29,1007.79
2014,02,16,10,30,1007.79
2014,02,16,10,31,1007.76
2014,02,16,10,32,1007.79
2014,02,16,10,33,1007.86
2014,02,16,10,34,1007.82
2014,02,16,10,35,1007.79
2014,02,16,10,36,1007.79
2014,02,16,10,37,1007.79
2014,02,16,10,38,1007.82
2014,02,16,10,39,1007.76
2014,02,16,10,40,1007.79
2014,02,16,10,41,1007.79
2014,02,16,10,42,1007.76
2014,02,16,10,43,1007.72
2014,02,16,10,44,1007.66
2014,02,16,10,45,1007.60
2014,02,16,10,46,1007.62
2014,02,16,10,47,1007.56
2014,02,16,10,48,1007.37
2014,02,16,10,49,1007.51
2014,02,16,10,50,1007.46
2014,02,16,10,51,1007.45
2014,02,16,10,52,1007.30
2014,02,16,10,53,1007.28
2014,02,16,10,54,1007.32
2014,02,16,10,55,1007.35
2014,02,16,10,56,1007.35
2014,02,16,10,57,1007.32
2014,02,16,10,58,1007.41
2014,02,16,10,59,1007.45
2014,02,16,11,00,1007.42
2014,02,16,11,01,1007.51
2014,02,16,11,02,1007.61
2014,02,16,11,03,1007.65
2014,02,16,11,04,1007.62
2014,02,16,11,05,1007.62
2014,02,16,11,06,1007.65
2014,02,16,11,07,1007.62
2014,02,16,11,08,1007.65
2014,02,16,11,09,1007.69
2014,02,16,11,10,1007.76
2014,02,16,11,11,1007.85
2014,02,16,11,12,1007.79
2014,02,16,11,13,1007.82
2014,02,16,11,14,1007.77
2014,02,16,11,15,1007.66
2014,02,16,11,16,1007.69
2014,02,16,11,17,1007.72
2014,02,16,11,18,1007.78
2014,02,16,11,19,1007.79
2014,02,16,11,20,1007.95
2014,02,16,11,21,1007.99
2014,02,16,11,22,1007.94
2014,02,16,11,23,1007.71
2014,02,16,11,24,1007.57
2014,02,16,11,25,1007.52
2014,02,16,11,26,1007.58
2014,02,16,11,27,1007.55
2014,02,16,11,28,1007.55
2014,02,16,11,29,1007.43
2014,02,16,11,30,1007.42
2014,02,16,11,31,1007.42
2014,02,16,11,32,1007.36
2014,02,16,11,33,1007.35
2014,02,16,11,34,1007.45
2014,02,16,11,35,1007.45
2014,02,16,11,36,1007.36
2014,02,16,11,37,1007.22
2014,02,16,11,38,1007.31
2014,02,16,11,39,1007.35
2014,02,16,11,40,1007.35
2014,02,16,11,41,1007.35
2014,02,16,11,42,1007.29
2014,02,16,11,43,1007.41
2014,02,16,11,44,1007.33
2014,02,16,11,45,1007.35
2014,02,16,11,46,1007.35
2014,02,16,11,47,1007.22
2014,02,16,11,48,1007.18
2014,02,16,11,49,1007.21
2014,02,16,11,50,1007.34
2014,02,16,11,51,1007.38
2014,02,16,11,52,1007.47
2014,02,16,11,53,1007.42
2014,02,16,11,54,1007.45
2014,02,16,11,55,1007.48
2014,02,16,11,56,1007.52
2014,02,16,11,57,1007.48
2014,02,16,11,58,1007.52
2014,02,16,11,59,1007.48
2014,02,16,12,00,1007.39
2014,02,16,12,01,1007.20
2014,02,16,12,02,1007.18
2014,02,16,12,03,1007.15
2014,02,16,12,04,1007.11
2014,02,16,12,05,1007.11
2014,02,16,12,06,1007.15
2014,02,16,12,07,1007.15
2014,02,16,12,08,1007.09
2014,02,16,12,09,1006.95
2014,02,16,12,10,1006.79
2014,02,16,12,11,1006.74
2014,02,16,12,12,1006.71
2014,02,16,12,13,1006.58
2014,02,16,12,14,1006.50
2014,02,16,12,15,1006.44
2014,02,16,12,16,1006.34
2014,02,16,12,17,1006.33
2014,02,16,12,18,1006.23
2014,02,16,12,19,1006.32
2014,02,16,12,20,1006.37
2014,02,16,12,21,1006.33
2014,02,16,12,22,1006.30
2014,02,16,12,23,1006.30
2014,02,16,12,24,1006.27
2014,02,16,12,25,1006.30
2014,02,16,12,26,1006.30
2014,02,16,12,27,1006.33
2014,02,16,12,28,1006.40
2014,02,16,12,29,1006.40
2014,02,16,12,30,1006.30
2014,02,16,12,31,1006.37
2014,02,16,12,32,1006.37
2014,02,16,12,33,1006.28
2014,02,16,12,34,1006.23
2014,02,16,12,35,1006.27
2014,02,16,12,36,1006.23
2014,02,16,12,37,1006.20
2014,02,16,12,38,1006.16
2014,02,16,12,39,1006.16
2014,02,16,12,40,1006.11
2014,02,16,12,41,1006.13
2014,02,16,12,42,1006.13
2014,02,16,12,43,1006.10
2014,02,16,12,44,1006.10
2014,02,16,12,45,1006.00
2014,02,16,12,46,1005.96
2014,02,16,12,47,1005.93
2014,02,16,12,48,1005.86
2014,02,16,12,49,1005.83
2014,02,16,12,50,1005.95
2014,02,16,12,51,1006.02
2014,02,16,12,52,1005.99
2014,02,16,12,53,1005.96
2014,02,16,12,54,1005.99
2014,02,16,12,55,1006.03
2014,02,16,12,56,1005.99
2014,02,16,12,57,1005.87
2014,02,16,12,58,1005.80
2014,02,16,12,59,1005.86
2014,02,16,13,00,1005.80
2014,02,16,13,01,1005.76
2014,02,16,13,02,1005.72
2014,02,16,13,03,1005.72
2014,02,16,13,04,1005.69
2014,02,16,13,05,1005.66
2014,02,16,13,06,1005.59
2014,02,16,13,07,1005.55
2014,02,16,13,08,1005.50
2014,02,16,13,09,1005.43
2014,02,16,13,10,1005.42
2014,02,16,13,11,1005.48
2014,02,16,13,12,1005.45
2014,02,16,13,13,1005.45
2014,02,16,13,14,1005.42
2014,02,16,13,15,1005.36
2014,02,16,13,16,1005.29
2014,02,16,13,17,1005.28
2014,02,16,13,18,1005.25
2014,02,16,13,19,1005.25
2014,02,16,13,20,1005.19
2014,02,16,13,21,1005.25
2014,02,16,13,22,1005.16
2014,02,16,13,23,1005.18
2014,02,16,13,24,1005.09
2014,02,16,13,25,1005.14
2014,02,16,13,26,1005.09
2014,02,16,13,27,1005.14
2014,02,16,13,28,1005.09
2014,02,16,13,29,1005.02
2014,02,16,13,30,1004.98
2014,02,16,13,31,1004.95
2014,02,16,13,32,1004.91
2014,02,16,13,33,1004.88
2014,02,16,13,34,1004.91
2014,02,16,13,35,1004.82
2014,02,16,13,36,1004.75
2014,02,16,13,37,1004.71
2014,02,16,13,38,1004.65
2014,02,16,13,39,1004.55
2014,02,16,13,40,1004.33
2014,02,16,13,41,1004.30
2014,02,16,13,42,1004.30
2014,02,16,13,43,1004.43
2014,02,16,13,44,1004.44
2014,02,16,13,45,1004.44
2014,02,16,13,46,1004.49
2014,02,16,13,47,1004.47
2014,02,16,13,48,1004.47
2014,02,16,13,49,1004.28
2014,02,16,13,50,1004.36
2014,02,16,13,51,1004.28
2014,02,16,13,52,1004.14
2014,02,16,13,53,1004.17
2014,02,16,13,54,1004.17
2014,02,16,13,55,1004.11
2014,02,16,13,56,1004.07
2014,02,16,13,57,1004.01
2014,02,16,13,58,1004.00
2014,02,16,13,59,1003.97
2014,02,16,14,00,1003.93
2014,02,16,14,01,1003.93
2014,02,16,14,02,1003.87
2014,02,16,14,03,1003.83
2014,02,16,14,04,1003.86
2014,02,16,14,05,1003.77
2014,02,16,14,06,1003.85
2014,02,16,14,07,1003.80
2014,02,16,14,08,1003.76
2014,02,16,14,09,1003.63
2014,02,16,14,10,1003.68
2014,02,16,14,11,1003.69
2014,02,16,14,12,1003.69
2014,02,16,14,13,1003.54
2014,02,16,14,14,1003.56
2014,02,16,14,15,1003.59
2014,02,16,14,16,1003.59
2014,02,16,14,17,1003.56
2014,02,16,14,18,1003.59
2014,02,16,14,19,1003.59
2014,02,16,14,20,1003.53
2014,02,16,14,21,1003.65
2014,02,16,14,22,1003.51
2014,02,16,14,23,1003.55
2014,02,16,14,24,1003.53
2014,02,16,14,25,1003.47
2014,02,16,14,26,1003.46
2014,02,16,14,27,1003.46
2014,02,16,14,28,1003.49
2014,02,16,14,29,1003.43
2014,02,16,14,30,1003.39
2014,02,16,14,31,1003.42
2014,02,16,14,32,1003.39
2014,02,16,14,33,1003.33
2014,02,16,14,34,1003.35
2014,02,16,14,35,1003.30
2014,02,16,14,36,1003.32
2014,02,16,14,37,1003.29
2014,02,16,14,38,1003.40
2014,02,16,14,39,1003.18
2014,02,16,14,40,1002.99
2014,02,16,14,41,1002.98
2014,02,16,14,42,1003.13
2014,02,16,14,43,1003.06
2014,02,16,14,44,1003.11
2014,02,16,14,45,1002.93
2014,02,16,14,46,1003.00
2014,02,16,14,47,1003.07
2014,02,16,14,48,1003.12
2014,02,16,14,49,1003.08
2014,02,16,14,50,1003.08
2014,02,16,14,51,1003.05
2014,02,16,14,52,1002.99
2014,02,16,14,53,1003.11
2014,02,16,14,54,1003.02
2014,02,16,14,55,1002.89
2014,02,16,14,56,1002.91
2014,02,16,14,57,1002.79
2014,02,16,14,58,1002.81
2014,02,16,14,59,1002.90
2014,02,16,15,00,1002.73
2014,02,16,15,01,1002.74
2014,02,16,15,02,1002.69
2014,02,16,15,03,1002.62
2014,02,16,15,04,1002.48
2014,02,16,15,05,1002.51
2014,02,16,15,06,1002.51
2014,02,16,15,07,1002.47
2014,02,16,15,08,1002.38
2014,02,16,15,09,1002.46
2014,02,16,15,10,1002.44
2014,02,16,15,11,1002.47
2014,02,16,15,12,1002.47
2014,02,16,15,13,1002.38
2014,02,16,15,14,1002.28
2014,02,16,15,15,1002.51
2014,02,16,15,16,1002.46
2014,02,16,15,17,1002.47
2014,02,16,15,18,1002.35
2014,02,16,15,19,1002.28
2014,02,16,15,20,1002.24
2014,02,16,15,21,1002.27
2014,02,16,15,22,1002.27
2014,02,16,15,23,1002.21
2014,02,16,15,24,1002.29
2014,02,16,15,25,1002.30
2014,02,16,15,26,1002.30
2014,02,16,15,27,1002.27
2014,02,16,15,28,1002.27
2014,02,16,15,29,1002.27
2014,02,16,15,30,1002.36
2014,02,16,15,31,1002.28
2014,02,16,15,32,1002.36
2014,02,16,15,33,1002.25
2014,02,16,15,34,1002.27
2014,02,16,15,35,1002.27
2014,02,16,15,36,1002.27
2014,02,16,15,37,1002.27
2014,02,16,15,38,1002.18
2014,02,16,15,39,1002.13
2014,02,16,15,40,1002.02
2014,02,16,15,41,1001.97
2014,02,16,15,42,1002.06
2014,02,16,15,43,1002.01
2014,02,16,15,44,1001.97
2014,02,16,15,45,1002.06
2014,02,16,15,46,1002.03
2014,02,16,15,47,1001.91
2014,02,16,15,48,1001.96
2014,02,16,15,49,1002.02
2014,02,16,15,50,1002.00
2014,02,16,15,51,1002.03
2014,02,16,15,52,1002.03
2014,02,16,15,53,1001.98
2014,02,16,15,54,1001.79
2014,02,16,15,55,1001.67
2014,02,16,15,56,1001.57
2014,02,16,15,57,1001.47
2014,02,16,15,58,1001.37
2014,02,16,15,59,1001.39
2014,02,16,16,00,1001.36
2014,02,16,16,01,1001.36
2014,02,16,16,02,1001.41
2014,02,16,16,03,1001.37
2014,02,16,16,04,1001.32
2014,02,16,16,05,1001.21
2014,02,16,16,06,1001.24
2014,02,16,16,07,1001.10